Regional Weather Roundup
Issued by NWS

Home | Current Version | Previous Version | Text Only | Print | Product List | Glossary On
Versions: 1 2 3 4 5 6 7 8 9 10 11 12 13 14 15 16 17 18 19 20 21 22 23 24 25 26 27 28 29 30 31 32 33 34 35 36 37 38 39 40 41 42 43 44 45 46 47 48 49 50
000
ASUS43 KMKX 281800
RWRWI

WISCONSIN REGIONAL WEATHER ROUNDUP
NATIONAL WEATHER SERVICE MILWAUKEE/SULLIVAN WI
1200 PM CST FRI NOV 28 2014

NOTE: "FAIR" INDICATES FEW OR NO CLOUDS BELOW 12,000 FEET WITH NO
SIGNIFICANT WEATHER AND/OR OBSTRUCTIONS TO VISIBILITY.

WIZ001-002-006>008-014>016-023>028-281900-
NORTHWEST WISCONSIN

CITY           SKY/WX    TMP DP  RH WIND       PRES   REMARKS
SUPERIOR ARPT  FLURRIES  13   9  82 CALM      30.01F
ASHLAND        CLOUDY    13   9  84 NE3       30.02F
6HR MIN TEMP:   8; 6HR MAX TEMP:  13; 6HR PCP:  0.01;

HAYWARD        CLOUDY    14   8  77 SE7       29.96F HAZE    WCI   4
6HR MIN TEMP:   8; 6HR MAX TEMP:  14;

SIREN          LGT SNOW  15  10  78 SE7       29.97F WCI   6
CUMBERLAND     LGT SNOW  14  10  85 SE7       29.95F WCI   4
RICE LAKE      LGT SNOW  15  10  80 SE10      29.98F WCI   3
CHETEK         LGT SNOW  16  10  79 SE9       29.98F WCI   4
LADYSMITH      FLURRIES  16  10  79 SE7       29.99F WCI   6
EAU CLAIRE     CLOUDY    18  11  74 SE6       29.97F WCI  10
6HR MIN TEMP:  11; 6HR MAX TEMP:  18;

MENOMONIE      CLOUDY    19  12  75 E9        29.99F WCI   7
NEW RICHMOND   CLOUDY    17  11  76 SE9       29.96F WCI   6
OSCEOLA        CLOUDY    17  11  77 SE8       29.99F WCI   7
$$

WIZ003>005-009-010-017-018-281900-
NORTH CENTRAL WISCONSIN

CITY           SKY/WX    TMP DP  RH WIND       PRES   REMARKS
MANITOWISH WTR LGT SNOW  10   9  92 SE5       29.97F WCI   2
ARBOR VITAE    LGT SNOW  13  10  86 SE6       29.97F WCI   4
WOODRUFF       LGT SNOW  13  10  86 SE6       29.97F WCI   4
RHINELANDER    LGT SNOW  11   8  88 SE7       29.98F VSB 3/4 WCI   0
6HR MIN TEMP:   5; 6HR MAX TEMP:  11; 6HR PCP:  0.03;

EAGLE RIVER    LGT SNOW  11   6  79 CALM      29.99F
LAND O LAKES   FLURRIES  13   8  83 SE6       29.99F WCI   4
PHILLIPS       CLOUDY    11   8  85 SE3       29.97F
TOMAHAWK       LGT SNOW  12   8  84 CALM      30.00F
MEDFORD        LGT SNOW  13   9  82 SE8       29.97F WCI   2
MERRILL        CLOUDY    13   9  83 SE9       30.00F WCI   1
$$

WIZ029-030-035-036-043>047-281900-
CENTRAL WISCONSIN

CITY           SKY/WX    TMP DP  RH WIND       PRES   REMARKS
WAUSAU         LGT SNOW  14  10  84 SE7       29.99F FOG     WCI   4
6HR MIN TEMP:   7; 6HR MAX TEMP:  14; 6HR PCP:  0.01;

MOSINEE        NOT AVBL
MARSHFIELD     CLOUDY    17  11  77 SE9       29.97F WCI   6
6HR MIN TEMP:   9; 6HR MAX TEMP:  17; 6HR PCP: TRACE;

STEVENS POINT  CLOUDY    14  10  84 SE8       30.02F WCI   3
WAUPACA        CLOUDY    20  14  77 E7        30.07F WCI  11
WAUTOMA        NOT AVBL
WISC RAPIDS    CLOUDY    18  11  74 SE6       30.02F WCI  10
6HR MIN TEMP:  10; 6HR MAX TEMP:  18; 6HR PCP:  0.01;

CAMP DOUGLAS   NOT AVBL
$$

WIZ011>013-019>022-031-037>040-048>050-281900-
NORTHEAST WISCONSIN

CITY           SKY/WX    TMP DP  RH WIND       PRES   REMARKS
ANTIGO         LGT SNOW  11   7  86 SE8       30.01F WCI  -1
SHAWANO        CLOUDY    18  12  79 SE5       30.09F WCI  11
OCONTO         CLOUDY    17  14  88 S5        30.11F WCI  10
STURGEON BAY   CLOUDY    18  12  79 S3        30.10F
6HR MIN TEMP:  12; 6HR MAX TEMP:  18;

GREEN BAY      CLOUDY    19  14  81 S10       30.09F WCI   7
6HR MIN TEMP:  11; 6HR MAX TEMP:  19; 6HR PCP:  0.05;

MANITOWOC      LGT SNOW  21  19  93 S9        30.11F FOG     WCI  11
APPLETON       CLOUDY    19  14  79 SE12      30.07F WCI   7
CLINTONVILLE   CLOUDY    18  12  79 SE5       30.08F WCI  11
OSHKOSH        CLOUDY    20  14  77 MISG      30.05F
6HR MIN TEMP:  12; 6HR MAX TEMP:  20; 6HR PCP:  0.02;

$$

WIZ032>034-041-042-053>061-281900-
SOUTHWEST WISCONSIN

CITY           SKY/WX    TMP DP  RH WIND       PRES   REMARKS
LA CROSSE      SUNNY     25  14  63 S9        29.98F WCI  15
6HR MIN TEMP:  16; 6HR MAX TEMP:  25;

SPARTA         MOSUNNY   25  13  61 S12       30.01F WCI  14
VIROQUA        SUNNY     23  14  68 S14       29.96F WCI  11
BOSCOBEL       SUNNY     26  15  63 S8        30.01F WCI  18
6HR MIN TEMP:  17; 6HR MAX TEMP:  26;

PRAIRIE DU CHI MOSUNNY   25  15  65 SE9       30.00F WCI  15
PLATTEVILLE    PTSUNNY   24  17  74 SE13      30.00F WCI  12
$$

WIZ056-057-062-063-064-067-068-281900-
SOUTH CENTRAL WISCONSIN

CITY           SKY/WX    TMP DP  RH WIND       PRES   REMARKS
REEDSBURG      MOSUNNY   23  13  68 SE7       30.01F WCI  14
BARABOO/DELLS  MOSUNNY   23  14  69 S10       30.01F WCI  12
LONE ROCK      NOT AVBL
MINERAL POINT  SUNNY     27  18  69 SE17      29.98F WCI  14
MADISON        PTSUNNY   23  15  71 S13       30.02F WCI  11
6HR MIN TEMP:  15; 6HR MAX TEMP:  23; 6HR PCP:  0.01;

MIDDLETON      PTSUNNY   26  14  59 S13       30.03F WCI  15
WATERTOWN      CLOUDY    23  15  73 SE10G18   30.06F WCI  12
MONROE         SUNNY     27  19  74 SE15      30.01F WCI  15
JANESVILLE     MOSUNNY   27  16  63 SE13      30.05F WCI  16
$$

WIZ051-052-058>065-066-070>072-281900-
SOUTHEAST WISCONSIN

CITY           SKY/WX    TMP DP  RH WIND       PRES   REMARKS
MILWAUKEE      CLOUDY    25  12  58 S10       30.09F WCI  15
6HR MIN TEMP:  16; 6HR MAX TEMP:  25; 6HR PCP:  0.02;

WAUKESHA       CLOUDY    21  12  68 SE13      30.08F WCI   9
MILWAUKEE/TIMM CLOUDY    23  12  63 SE7       30.10F WCI  15
RACINE         CLOUDY    27  18  69 S14G23    30.11F WCI  16
6HR MIN TEMP:  18; 6HR MAX TEMP:  27; 6HR PCP: TRACE;

BURLINGTON     PTSUNNY   22  15  72 SE10      30.08F WCI  11
KENOSHA        CLOUDY    25  15  66 SE12      30.09F WCI  14
6HR MIN TEMP:  18; 6HR MAX TEMP:  25; 6HR PCP:  0.01;

FOND DU LAC    CLOUDY    21  14  74 SE10      30.05F WCI  10
6HR MIN TEMP:  13; 6HR MAX TEMP:  21; 6HR PCP: TRACE;

SHEBOYGAN      CLOUDY    22  17  81 S12       30.08F WCI  10
6HR MIN TEMP:  12; 6HR MAX TEMP:  22; 6HR PCP:  0.01;

WEST BEND      CLOUDY    21  14  73 SE7       30.08F WCI  13
JUNEAU         CLOUDY    21  14  75 SE10      30.07F WCI  10
$$

LSZ147-162-281900-
LAKE SUPERIOR

STATION/POSITION TIME  TEMP    WIND        PRES    WAVE
                       AIR SEA DIR/SP/G            HT/PER
                 (UTC) (F)     (DEG/KT/KT) (MB)    (FT/S)
DEVILS ISLAND    1700   17     140/  6/  8 1019.2F
PORT WING        1700   15     140/  3/  6 1017.3
SAXON HARBOR     1700   14        CALM     1017.6
$$

LMZ867-665-643>646-281900-
LAKE MICHIGAN

STATION/POSITION TIME  TEMP    WIND        PRES    WAVE
                       AIR SEA DIR/SP/G            HT/PER
                 (UTC) (F)     (DEG/KT/KT) (MB)    (FT/S)
CHAMBERS ISLAND  1700   20     180/  4/ 10 1021.0F
N MID LAKE BUOY  1650   25 42  230/ 14/ 19 1022.2F   2/ 3
NORTHPORT PIER   1718   20     170/  4/  8 1021.0F
ALGOMA LAKESHORE 1658          250/  8/  9   N/A
KEWAUNEE LAKESHO 1700   17     260/  3/  7 1020.3F
SHEBOYGAN LAKESH 1700   24 34  210/ 11/ 14 1021.9F
PORT WASHINGTON  1720   24     220/  9/ 16 1021.3F
MILWAUKEE LAKESH 1700   23     190/ 10/ 12   N/A
S MID LAKE BUOY  1650   28 42  190/ 17/ 21 1023.1F   3/ 4
KENOSHA   LAKESH 1700   25     170/ 17/ 21 1020.7F
$$

TC  - TEMPERATURE IN CELSIUS
VSB - VISIBILITY IN STATUTE MILES
WCI - WIND CHILL INDEX
HX  - HEAT INDEX




USA.gov is the U.S. government's official web portal to all federal, state and local government web resources and services.